Saint Bonnet de Bellac- Haute Vienne - France
Donnes mto: vendredi, 09/03/2012
Date Horaire Temp. E. Hum. E. P.atmo. Pluie Vent Direction Direction Ensoleilleme Solaire P. de rose Temp au vent Rafales
09/03/2012 00:00 1,4 C 80 % 1034,9 hPa 0,0 mm 0,0 km/h (0 Bft) N-NE 22 0 min 0 W/m -1,7 C 1,4 C 0,0 km/h (0 Bft)
09/03/2012 00:10 1,2 C 81 % 1034,9 hPa 0,0 mm 0,0 km/h (0 Bft) N 360 0 min 0 W/m -1,7 C 1,2 C 0,0 km/h (0 Bft)
09/03/2012 00:20 1,1 C 81 % 1034,9 hPa 0,0 mm 0,0 km/h (0 Bft) N 360 0 min 0 W/m -1,8 C 1,1 C 0,0 km/h (0 Bft)
09/03/2012 00:30 0,9 C 81 % 1034,9 hPa 0,0 mm 0,0 km/h (0 Bft) N-NE 22 0 min 0 W/m -2,0 C 0,9 C 0,0 km/h (0 Bft)
09/03/2012 00:40 0,8 C 82 % 1034,9 hPa 0,0 mm 0,0 km/h (0 Bft) N-NE 22 0 min 0 W/m -1,9 C 0,8 C 0,0 km/h (0 Bft)
09/03/2012 00:50 0,5 C 82 % 1034,9 hPa 0,0 mm 0,0 km/h (0 Bft) N-NE 22 0 min 0 W/m -2,2 C 0,5 C 0,0 km/h (0 Bft)
09/03/2012 01:00 0,3 C 82 % 1035,0 hPa 0,0 mm 0,0 km/h (0 Bft) N-NE 22 0 min 0 W/m -2,4 C 0,3 C 0,0 km/h (0 Bft)
09/03/2012 01:10 0,0 C 83 % 1035,0 hPa 0,0 mm 0,0 km/h (0 Bft) N-NE 22 0 min 0 W/m -2,5 C 0,0 C 0,0 km/h (0 Bft)
09/03/2012 01:20 -0,2 C 83 % 1034,9 hPa 0,0 mm 0,0 km/h (0 Bft) N-NE 22 0 min 0 W/m -2,7 C -0,2 C 0,0 km/h (0 Bft)
09/03/2012 01:30 -0,4 C 83 % 1034,8 hPa 0,0 mm 0,0 km/h (0 Bft) N-NE 22 0 min 0 W/m -2,9 C -0,4 C 0,0 km/h (0 Bft)
09/03/2012 01:40 -0,6 C 84 % 1034,9 hPa 0,0 mm 0,0 km/h (0 Bft) N-NE 22 0 min 0 W/m -3,0 C -0,6 C 0,0 km/h (0 Bft)
09/03/2012 01:50 -0,8 C 84 % 1034,8 hPa 0,0 mm 0,0 km/h (0 Bft) N-NE 22 0 min 0 W/m -3,2 C -0,8 C 0,0 km/h (0 Bft)
09/03/2012 02:02 -0,9 C 84 % 1034,9 hPa 0,0 mm 0,0 km/h (0 Bft) N-NE 22 0 min 0 W/m -3,3 C -0,9 C 0,0 km/h (0 Bft)
09/03/2012 02:10 -0,9 C 85 % 1034,9 hPa 0,0 mm 0,0 km/h (0 Bft) N-NE 22 0 min 0 W/m -3,1 C -0,9 C 0,0 km/h (0 Bft)
09/03/2012 02:20 -1,1 C 85 % 1034,9 hPa 0,0 mm 0,0 km/h (0 Bft) N-NE 22 0 min 0 W/m -3,3 C -1,1 C 0,0 km/h (0 Bft)
09/03/2012 02:30 -1,2 C 85 % 1035,0 hPa 0,0 mm 0,0 km/h (0 Bft) N-NE 22 0 min 0 W/m -3,4 C -1,2 C 0,0 km/h (0 Bft)
09/03/2012 02:40 -1,2 C 85 % 1035,0 hPa 0,0 mm 0,0 km/h (0 Bft) N 360 0 min 0 W/m -3,4 C -1,2 C 0,0 km/h (0 Bft)
09/03/2012 02:50 -1,4 C 86 % 1035,0 hPa 0,0 mm 0,0 km/h (0 Bft) N 360 0 min 0 W/m -3,4 C -1,4 C 0,0 km/h (0 Bft)
09/03/2012 03:00 -1,4 C 86 % 1035,0 hPa 0,0 mm 0,0 km/h (0 Bft) N 360 0 min 0 W/m -3,4 C -1,4 C 0,0 km/h (0 Bft)
09/03/2012 03:10 -1,5 C 86 % 1034,9 hPa 0,0 mm 0,0 km/h (0 Bft) N 360 0 min 0 W/m -3,5 C -1,5 C 0,0 km/h (0 Bft)
09/03/2012 03:20 -1,6 C 86 % 1034,9 hPa 0,0 mm 0,0 km/h (0 Bft) N 360 0 min 0 W/m -3,6 C -1,6 C 0,0 km/h (0 Bft)
09/03/2012 03:30 -1,6 C 86 % 1034,8 hPa 0,0 mm 0,0 km/h (0 Bft) N 360 0 min 0 W/m -3,6 C -1,6 C 0,0 km/h (0 Bft)
09/03/2012 03:40 -1,7 C 86 % 1034,8 hPa 0,0 mm 0,0 km/h (0 Bft) N 360 0 min 0 W/m -3,7 C -1,7 C 0,0 km/h (0 Bft)
09/03/2012 03:50 -1,7 C 87 % 1034,7 hPa 0,0 mm 0,0 km/h (0 Bft) N 360 0 min 0 W/m -3,6 C -1,7 C 0,0 km/h (0 Bft)
09/03/2012 04:00 -1,8 C 87 % 1034,6 hPa 0,0 mm 0,0 km/h (0 Bft) N 360 0 min 0 W/m -3,7 C -1,8 C 0,0 km/h (0 Bft)
09/03/2012 04:10 -2,1 C 87 % 1034,6 hPa 0,0 mm 0,0 km/h (0 Bft) N 360 0 min 0 W/m -4,0 C -2,1 C 0,0 km/h (0 Bft)
09/03/2012 04:20 -2,2 C 87 % 1034,7 hPa 0,0 mm 0,0 km/h (0 Bft) N 360 0 min 0 W/m -4,1 C -2,2 C 0,0 km/h (0 Bft)
09/03/2012 04:30 -2,3 C 87 % 1034,6 hPa 0,0 mm 0,0 km/h (0 Bft) NE 45 0 min 0 W/m -4,2 C -2,3 C 0,0 km/h (0 Bft)
09/03/2012 04:40 -2,2 C 87 % 1034,5 hPa 0,0 mm 0,0 km/h (0 Bft) E-NE 67 0 min 0 W/m -4,1 C -2,2 C 0,0 km/h (0 Bft)
09/03/2012 04:50 -2,2 C 87 % 1034,5 hPa 0,0 mm 0,0 km/h (0 Bft) E 90 0 min 0 W/m -4,1 C -2,2 C 0,0 km/h (0 Bft)
09/03/2012 05:00 -2,1 C 87 % 1034,6 hPa 0,0 mm 0,0 km/h (0 Bft) E 90 0 min 0 W/m -4,0 C -2,1 C 0,0 km/h (0 Bft)
09/03/2012 05:10 -2,1 C 87 % 1034,5 hPa 0,0 mm 0,0 km/h (0 Bft) E 90 0 min 0 W/m -4,0 C -2,1 C 0,0 km/h (0 Bft)
09/03/2012 05:20 -2,2 C 87 % 1034,6 hPa 0,0 mm 0,0 km/h (0 Bft) E 90 0 min 0 W/m -4,1 C -2,2 C 0,0 km/h (0 Bft)
09/03/2012 05:30 -2,3 C 87 % 1034,5 hPa 0,0 mm 0,0 km/h (0 Bft) E 90 0 min 0 W/m -4,2 C -2,3 C 0,0 km/h (0 Bft)
09/03/2012 05:40 -2,4 C 88 % 1034,5 hPa 0,0 mm 0,0 km/h (0 Bft) E 90 0 min 0 W/m -4,1 C -2,4 C 0,0 km/h (0 Bft)
09/03/2012 05:50 -2,4 C 88 % 1034,5 hPa 0,0 mm 0,0 km/h (0 Bft) E 90 0 min 0 W/m -4,1 C -2,4 C 0,0 km/h (0 Bft)
09/03/2012 06:00 -2,5 C 88 % 1034,5 hPa 0,0 mm 0,0 km/h (0 Bft) E-SE 112 0 min 0 W/m -4,2 C -2,5 C 0,0 km/h (0 Bft)
09/03/2012 06:10 -2,6 C 88 % 1034,5 hPa 0,0 mm 0,0 km/h (0 Bft) E-SE 112 0 min 0 W/m -4,3 C -2,6 C 0,0 km/h (0 Bft)
09/03/2012 06:20 -2,7 C 88 % 1034,6 hPa 0,0 mm 0,0 km/h (0 Bft) S-SO 202 0 min 0 W/m -4,4 C -2,7 C 0,0 km/h (0 Bft)
09/03/2012 06:30 -2,8 C 88 % 1034,7 hPa 0,0 mm 0,0 km/h (0 Bft) E-SE 112 0 min 0 W/m -4,5 C -2,8 C 0,0 km/h (0 Bft)
09/03/2012 06:40 -2,9 C 88 % 1034,8 hPa 0,0 mm 0,0 km/h (0 Bft) S 180 0 min 0 W/m -4,6 C -2,9 C 0,0 km/h (0 Bft)
09/03/2012 06:50 -2,9 C 89 % 1034,9 hPa 0,0 mm 0,0 km/h (0 Bft) S 180 0 min 0 W/m -4,5 C -2,9 C 0,0 km/h (0 Bft)
09/03/2012 07:00 -3,1 C 88 % 1034,8 hPa 0,0 mm 0,0 km/h (0 Bft) S 180 0 min 0 W/m -4,8 C -3,1 C 0,0 km/h (0 Bft)
09/03/2012 07:10 -3,2 C 89 % 1035,0 hPa 0,0 mm 0,0 km/h (0 Bft) S 180 0 min 0 W/m -4,7 C -3,2 C 0,0 km/h (0 Bft)
09/03/2012 07:20 -3,2 C 89 % 1035,0 hPa 0,0 mm 0,0 km/h (0 Bft) S 180 0 min 0 W/m -4,7 C -3,2 C 0,0 km/h (0 Bft)
09/03/2012 07:30 -3,2 C 89 % 1035,0 hPa 0,0 mm 0,0 km/h (0 Bft) S 180 2 min 0 W/m -4,7 C -3,2 C 0,0 km/h (0 Bft)
09/03/2012 07:40 -3,2 C 89 % 1034,9 hPa 0,0 mm 0,0 km/h (0 Bft) SE 135 2 min 0 W/m -4,7 C -3,2 C 0,0 km/h (0 Bft)
09/03/2012 07:50 -3,4 C 89 % 1035,1 hPa 0,0 mm 0,0 km/h (0 Bft) E-SE 112 2 min 0 W/m -4,9 C -3,4 C 0,0 km/h (0 Bft)
09/03/2012 08:00 -3,2 C 89 % 1035,1 hPa 0,0 mm 0,0 km/h (0 Bft) E-SE 112 2 min 0 W/m -4,7 C -3,2 C 0,0 km/h (0 Bft)
09/03/2012 08:10 -2,8 C 90 % 1035,2 hPa 0,0 mm 0,0 km/h (0 Bft) E 90 2 min 0 W/m -4,2 C -2,8 C 0,0 km/h (0 Bft)
09/03/2012 08:20 -2,4 C 90 % 1035,3 hPa 0,0 mm 0,4 km/h (0 Bft) E 90 2 min 0 W/m -3,8 C -2,4 C 3,2 km/h (1 Bft)
09/03/2012 08:30 -1,8 C 90 % 1035,3 hPa 0,0 mm 0,0 km/h (0 Bft) E 90 2 min 0 W/m -3,2 C -1,8 C 0,0 km/h (0 Bft)
09/03/2012 08:40 -1,1 C 91 % 1035,3 hPa 0,0 mm 0,0 km/h (0 Bft) E 90 2 min 0 W/m -2,4 C -1,1 C 0,0 km/h (0 Bft)
09/03/2012 08:50 -0,4 C 91 % 1035,6 hPa 0,0 mm 0,0 km/h (0 Bft) E 90 2 min 0 W/m -1,7 C -0,4 C 0,0 km/h (0 Bft)
09/03/2012 09:00 0,3 C 90 % 1035,8 hPa 0,0 mm 0,0 km/h (0 Bft) E 90 2 min 0 W/m -1,1 C 0,3 C 0,0 km/h (0 Bft)
09/03/2012 09:10 1,1 C 92 % 1035,9 hPa 0,0 mm 0,0 km/h (0 Bft) E 90 2 min 0 W/m -0,1 C 1,1 C 0,0 km/h (0 Bft)
09/03/2012 09:20 2,0 C 89 % 1035,9 hPa 0,0 mm 0,0 km/h (0 Bft) E 90 2 min 0 W/m 0,4 C 2,0 C 0,0 km/h (0 Bft)
09/03/2012 09:30 2,8 C 88 % 1036,0 hPa 0,0 mm 0,0 km/h (0 Bft) E 90 2 min 0 W/m 1,0 C 2,8 C 2,9 km/h (1 Bft)
09/03/2012 09:40 3,4 C 86 % 1036,2 hPa 0,0 mm 0,0 km/h (0 Bft) E 90 2 min 0 W/m 1,3 C 3,4 C 0,0 km/h (0 Bft)
09/03/2012 09:50 4,3 C 84 % 1036,2 hPa 0,0 mm 0,0 km/h (0 Bft) E 90 2 min 0 W/m 1,8 C 4,3 C 0,0 km/h (0 Bft)
09/03/2012 10:00 5,1 C 83 % 1036,3 hPa 0,0 mm 0,0 km/h (0 Bft) S 180 2 min 0 W/m 2,5 C 5,1 C 0,0 km/h (0 Bft)
09/03/2012 10:10 5,8 C 82 % 1036,4 hPa 0,0 mm 0,0 km/h (0 Bft) S 180 2 min 0 W/m 3,0 C 5,8 C 0,0 km/h (0 Bft)
09/03/2012 10:20 6,6 C 77 % 1036,5 hPa 0,0 mm 0,0 km/h (0 Bft) S-SO 202 2 min 0 W/m 2,9 C 6,6 C 0,0 km/h (0 Bft)
09/03/2012 10:30 7,4 C 77 % 1036,6 hPa 0,0 mm 0,4 km/h (0 Bft) S-SO 202 2 min 0 W/m 3,6 C 7,4 C 3,2 km/h (1 Bft)
09/03/2012 10:40 8,2 C 75 % 1036,7 hPa 0,0 mm 0,0 km/h (0 Bft) E-NE 67 2 min 0 W/m 4,0 C 8,2 C 0,0 km/h (0 Bft)
09/03/2012 10:50 8,9 C 74 % 1036,7 hPa 0,0 mm 0,4 km/h (0 Bft) N-NE 22 2 min 0 W/m 4,5 C 8,9 C 3,6 km/h (1 Bft)
09/03/2012 11:00 9,6 C 72 % 1036,7 hPa 0,0 mm 0,7 km/h (0 Bft) E-NE 67 2 min 0 W/m 4,8 C 9,6 C 0,7 km/h (0 Bft)
09/03/2012 11:10 10,2 C 69 % 1036,8 hPa 0,0 mm 0,7 km/h (0 Bft) N 360 2 min 0 W/m 4,8 C 10,2 C 0,7 km/h (0 Bft)
09/03/2012 11:20 10,6 C 69 % 1036,8 hPa 0,0 mm 2,5 km/h (1 Bft) E-SE 112 2 min 0 W/m 5,2 C 10,6 C 4,3 km/h (1 Bft)
09/03/2012 11:30 11,1 C 67 % 1036,8 hPa 0,0 mm 5,0 km/h (1 Bft) E-NE 67 2 min 0 W/m 5,2 C 11,1 C 5,0 km/h (1 Bft)
09/03/2012 11:40 11,2 C 64 % 1036,9 hPa 0,0 mm 7,2 km/h (2 Bft) NE 45 2 min 0 W/m 4,6 C 11,2 C 8,6 km/h (2 Bft)
09/03/2012 11:50 11,4 C 64 % 1036,8 hPa 0,0 mm 3,2 km/h (1 Bft) NE 45 2 min 0 W/m 4,8 C 11,4 C 3,6 km/h (1 Bft)
09/03/2012 12:00 11,7 C 61 % 1036,5 hPa 0,0 mm 8,6 km/h (2 Bft) N-NE 22 2 min 0 W/m 4,4 C 11,7 C 12,6 km/h (3 Bft)
09/03/2012 12:10 11,9 C 60 % 1036,5 hPa 0,0 mm 5,4 km/h (2 Bft) NE 45 2 min 0 W/m 4,4 C 11,9 C 9,0 km/h (2 Bft)
09/03/2012 12:20 12,1 C 59 % 1036,5 hPa 0,0 mm 6,1 km/h (2 Bft) NE 45 2 min 0 W/m 4,3 C 12,1 C 9,4 km/h (2 Bft)
09/03/2012 12:30 12,3 C 60 % 1036,5 hPa 0,0 mm 1,1 km/h (1 Bft) E 90 2 min 0 W/m 4,8 C 12,3 C 3,2 km/h (1 Bft)
09/03/2012 12:40 12,5 C 58 % 1036,5 hPa 0,0 mm 5,4 km/h (2 Bft) N-NE 22 2 min 0 W/m 4,5 C 12,5 C 8,3 km/h (2 Bft)
09/03/2012 12:50 12,6 C 57 % 1036,5 hPa 0,0 mm 3,6 km/h (1 Bft) NE 45 2 min 0 W/m 4,3 C 12,6 C 3,6 km/h (1 Bft)
09/03/2012 13:00 12,8 C 56 % 1036,4 hPa 0,0 mm 9,4 km/h (2 Bft) N-NE 22 2 min 0 W/m 4,2 C 12,8 C 9,4 km/h (2 Bft)
09/03/2012 13:10 12,6 C 55 % 1036,3 hPa 0,0 mm 8,6 km/h (2 Bft) NE 45 2 min 0 W/m 3,8 C 12,6 C 12,2 km/h (2 Bft)
_ Min-Heure 07:50 13:10 06:10 - 10:40 - - - - 07:50 07:50 10:40
Minimum _ -3,4 C 55 % 1034,5 hPa - 0,0 km/h (0 Bft) - - - - -4,9 C -3,4 C 0,0 km/h (0 Bft)
_ Max-Heure 13:00 09:10 11:40 13:10 13:00 - - 13:10 13:10 11:30 13:00 12:00
Maximum _ 12,8 C 92 % 1036,9 hPa 0,0 mm 9,4 km/h
N-NE (2 Bft)
- - 2 min 0 W/m 5,2 C 12,8 C 12,6 km/h
N-NE (3 Bft)
Moyenne _ 1,7 C 82 % 1035,4 hPa #0,0 mm 0,9 km/h (0 Bft) E - #1:10 h 0 W/m -1,3 C 1,7 C 1,3 km/h (1 Bft)
Saint Bonnet de Bellac- Haute Vienne - France